Location: Lhota
(50.0887°N, 14.0116°E)
Time: 20:46:02
(UTC+00:00)

Cosmos 1408 Rocket - Pass Details

Date: 19 May 2025
Orbit: 594 x 625 km, 82.6° (Epoch: 15 June)

Event Time Altitude Azimuth Distance (km) Brightness Sun altitude
Rises 22:55:02 0° 343° (NNW) 2,884 8.4 -19.9°
Reaches altitude 10° 22:57:24 10° 335° (NNW) 1,969 7.1 -19.9°
Maximum altitude 23:01:22 36° 269° (W) 964 4.5 -19.9°
Enters shadow 23:02:23 31° 238° (WSW) 1,056 4.4 -19.9°
